Time,TemperatureF,DewpointF,PressureIn,WindDirection,WindDirectionDegrees,WindSpeedMPH,WindSpeedGustMPH,Humidity,HourlyPrecipIn,Conditions,Clouds,dailyrainin,SoftwareType,DateUTC
2013-06-06 00:00:00,75.8,68.8,29.87,NE,47,5.0,9.0,79,0.00,,,0.00,Wunderground v.1.15,2013-06-06 05:00:00,
2013-06-06 00:06:00,75.8,69.0,29.87,ENE,57,5.0,10.0,79,0.00,,,0.00,weatherlink.com 1.10,2013-06-06 05:06:00,
2013-06-06 00:15:00,75.6,68.6,29.87,NE,34,6.0,9.0,79,0.00,,,0.00,Wunderground v.1.15,2013-06-06 05:15:00,
2013-06-06 00:20:00,75.5,68.5,29.87,ENE,73,7.0,8.0,79,0.00,,,0.00,Wunderground v.1.15,2013-06-06 05:20:00,
2013-06-06 00:21:00,75.5,69.0,29.87,NE,44,4.0,12.0,80,0.00,,,0.00,weatherlink.com 1.10,2013-06-06 05:21:00,
2013-06-06 00:25:00,75.5,68.9,29.87,ENE,59,6.0,8.0,80,0.00,,,0.00,Wunderground v.1.15,2013-06-06 05:25:00,
2013-06-06 00:30:00,75.4,68.8,29.87,NE,47,6.0,7.0,80,0.00,,,0.00,Wunderground v.1.15,2013-06-06 05:30:00,
2013-06-06 00:36:00,75.2,69.0,29.88,NNE,13,6.0,9.0,80,0.00,,,0.00,weatherlink.com 1.10,2013-06-06 05:36:00,
2013-06-06 00:45:00,75.2,68.6,29.88,NNE,17,7.0,7.0,80,0.00,,,0.00,Wunderground v.1.15,2013-06-06 05:45:00,
2013-06-06 00:51:00,75.1,69.0,29.87,ENE,64,4.0,11.0,80,0.00,,,0.00,weatherlink.com 1.10,2013-06-06 05:51:00,
2013-06-06 00:55:00,75.0,68.4,29.87,NE,49,7.0,7.0,80,0.00,,,0.00,Wunderground v.1.15,2013-06-06 05:55:00,
2013-06-06 01:05:00,74.9,68.3,29.87,ENE,61,7.0,9.0,80,0.00,,,0.00,Wunderground v.1.15,2013-06-06 06:05:00,
2013-06-06 01:06:00,74.9,68.0,29.87,NE,44,6.0,12.0,80,0.00,,,0.00,weatherlink.com 1.10,2013-06-06 06:06:00,
2013-06-06 01:15:00,74.8,68.6,29.87,NNE,22,6.0,6.0,81,0.00,,,0.00,Wunderground v.1.15,2013-06-06 06:15:00,
2013-06-06 01:20:00,74.7,68.5,29.87,NE,40,6.0,6.0,81,0.00,,,0.00,Wunderground v.1.15,2013-06-06 06:20:00,
2013-06-06 01:22:00,74.6,68.0,29.87,NE,37,9.0,11.0,81,0.00,,,0.00,weatherlink.com 1.10,2013-06-06 06:22:00,
2013-06-06 01:30:00,74.6,68.4,29.87,NE,42,6.0,6.0,81,0.00,,,0.00,Wunderground v.1.15,2013-06-06 06:30:00,
2013-06-06 01:37:00,74.6,68.0,29.86,NE,38,7.0,14.0,81,0.00,,,0.00,weatherlink.com 1.10,2013-06-06 06:37:00,
2013-06-06 01:45:00,74.7,68.1,29.87,NE,46,8.0,10.0,80,0.00,,,0.00,Wunderground v.1.15,2013-06-06 06:45:00,
2013-06-06 01:52:00,74.6,68.0,29.86,NE,36,3.0,14.0,80,0.00,,,0.00,weatherlink.com 1.10,2013-06-06 06:52:00,
2013-06-06 02:00:00,74.5,68.3,29.86,East,80,7.0,7.0,81,0.00,,,0.00,Wunderground v.1.15,2013-06-06 07:00:00,
2013-06-06 02:05:00,74.4,68.2,29.86,NE,38,6.0,8.0,81,0.00,,,0.00,Wunderground v.1.15,2013-06-06 07:05:00,
2013-06-06 02:07:00,74.4,68.0,29.86,NE,41,10.0,11.0,81,0.00,,,0.00,weatherlink.com 1.10,2013-06-06 07:07:00,
2013-06-06 02:15:00,74.3,68.1,29.85,NNE,21,7.0,10.0,81,0.00,,,0.00,Wunderground v.1.15,2013-06-06 07:15:00,
2013-06-06 02:22:00,74.2,68.0,29.85,NE,35,6.0,13.0,81,0.00,,,0.00,weatherlink.com 1.10,2013-06-06 07:22:00,
2013-06-06 02:30:00,74.1,67.9,29.85,NE,40,7.0,7.0,81,0.00,,,0.00,Wunderground v.1.15,2013-06-06 07:30:00,
2013-06-06 02:35:00,74.0,67.8,29.85,NE,51,7.0,7.0,81,0.00,,,0.00,Wunderground v.1.15,2013-06-06 07:35:00,
2013-06-06 02:37:00,74.0,68.0,29.85,NE,55,4.0,14.0,81,0.00,,,0.00,weatherlink.com 1.10,2013-06-06 07:37:00,
2013-06-06 02:45:00,73.9,67.7,29.84,NE,41,6.0,9.0,81,0.00,,,0.00,Wunderground v.1.15,2013-06-06 07:45:00,
2013-06-06 02:52:00,73.8,68.0,29.84,NE,52,5.0,11.0,82,0.00,,,0.00,weatherlink.com 1.10,2013-06-06 07:52:00,
2013-06-06 03:00:00,73.7,67.9,29.84,ENE,73,4.0,4.0,82,0.00,,,0.00,Wunderground v.1.15,2013-06-06 08:00:00,
2013-06-06 03:05:00,73.6,67.8,29.85,NE,51,5.0,5.0,82,0.00,,,0.00,Wunderground v.1.15,2013-06-06 08:05:00,
2013-06-06 03:07:00,73.6,68.0,29.85,NE,51,5.0,9.0,82,0.00,,,0.00,weatherlink.com 1.10,2013-06-06 08:07:00,
2013-06-06 03:10:00,73.5,67.7,29.85,NE,51,5.0,6.0,82,0.00,,,0.00,Wunderground v.1.15,2013-06-06 08:10:00,
2013-06-06 03:20:00,73.3,67.8,29.84,NE,34,4.0,7.0,83,0.00,,,0.00,Wunderground v.1.15,2013-06-06 08:20:00,
2013-06-06 03:23:00,73.3,68.0,29.84,NNE,28,5.0,11.0,83,0.00,,,0.00,weatherlink.com 1.10,2013-06-06 08:23:00,
2013-06-06 03:25:00,73.2,67.7,29.84,NE,39,6.0,12.0,83,0.00,,,0.00,Wunderground v.1.15,2013-06-06 08:25:00,
2013-06-06 03:30:00,73.1,67.6,29.84,NE,37,7.0,9.0,83,0.00,,,0.00,Wunderground v.1.15,2013-06-06 08:30:00,
2013-06-06 03:35:00,73.0,67.5,29.84,NE,44,7.0,13.0,83,0.00,,,0.00,Wunderground v.1.15,2013-06-06 08:35:00,
2013-06-06 03:39:00,72.9,68.0,29.84,NNE,32,7.0,13.0,83,0.00,,,0.00,weatherlink.com 1.10,2013-06-06 08:39:00,
2013-06-06 03:45:00,72.9,67.4,29.85,NNE,32,6.0,7.0,83,0.00,,,0.00,Wunderground v.1.15,2013-06-06 08:45:00,
2013-06-06 03:50:00,72.8,67.3,29.83,NE,53,6.0,10.0,83,0.00,,,0.00,Wunderground v.1.15,2013-06-06 08:50:00,
2013-06-06 03:54:00,72.7,67.0,29.84,NNE,24,3.0,11.0,83,0.00,,,0.00,weatherlink.com 1.10,2013-06-06 08:54:00,
2013-06-06 04:00:00,72.7,66.9,29.85,NE,49,6.0,6.0,82,0.00,,,0.00,Wunderground v.1.15,2013-06-06 09:00:00,
2013-06-06 04:05:00,72.7,66.9,29.85,NE,44,6.0,6.0,82,0.00,,,0.00,Wunderground v.1.15,2013-06-06 09:05:00,
2013-06-06 04:09:00,72.7,67.0,29.85,NE,46,7.0,14.0,82,0.00,,,0.00,weatherlink.com 1.10,2013-06-06 09:09:00,
2013-06-06 04:15:00,72.8,66.6,29.85,NE,49,7.0,8.0,81,0.00,,,0.00,Wunderground v.1.15,2013-06-06 09:15:00,
2013-06-06 04:23:00,72.9,66.0,29.90,SW,223,7.0,19.0,80,0.00,,,0.00,weatherlink.com 1.10,2013-06-06 09:23:00,
2013-06-06 04:30:00,71.2,64.7,29.92,SW,223,8.0,9.0,80,0.00,,,0.00,Wunderground v.1.15,2013-06-06 09:30:00,
2013-06-06 04:35:00,69.5,64.1,29.92,NW,316,7.0,9.0,83,0.41,,,0.02,Wunderground v.1.15,2013-06-06 09:35:00,
2013-06-06 04:38:00,68.4,64.0,29.93,WNW,298,6.0,20.0,85,0.05,,,0.05,weatherlink.com 1.10,2013-06-06 09:38:00,
2013-06-06 04:45:00,66.9,63.2,29.90,SW,236,3.0,5.0,88,1.17,,,0.23,Wunderground v.1.15,2013-06-06 09:45:00,
2013-06-06 04:54:00,65.8,63.0,29.91,WNW,297,4.0,10.0,91,0.32,,,0.32,weatherlink.com 1.10,2013-06-06 09:54:00,
2013-06-06 05:00:00,65.6,63.2,29.92,WNW,296,3.0,3.0,92,0.35,,,0.35,Wunderground v.1.15,2013-06-06 10:00:00,
2013-06-06 05:05:00,65.4,63.3,29.91,WNW,283,3.0,3.0,93,0.26,,,0.37,Wunderground v.1.15,2013-06-06 10:05:00,
2013-06-06 05:09:00,65.4,63.0,29.91,NW,313,3.0,8.0,93,0.38,,,0.38,weatherlink.com 1.10,2013-06-06 10:09:00,
2013-06-06 05:15:00,65.3,63.2,29.92,West,260,2.0,3.0,93,0.11,,,0.39,Wunderground v.1.15,2013-06-06 10:15:00,
2013-06-06 05:24:00,65.3,64.0,29.92,NNW,331,2.0,8.0,94,0.41,,,0.41,weatherlink.com 1.10,2013-06-06 10:24:00,
2013-06-06 05:25:00,65.3,63.5,29.92,NNW,331,2.0,2.0,94,0.10,,,0.41,Wunderground v.1.15,2013-06-06 10:25:00,
2013-06-06 05:30:00,65.3,63.5,29.93,NNW,342,1.0,1.0,94,0.13,,,0.42,Wunderground v.1.15,2013-06-06 10:30:00,
2013-06-06 05:35:00,65.3,63.5,29.93,NNW,331,2.0,2.0,94,0.13,,,0.43,Wunderground v.1.15,2013-06-06 10:35:00,
2013-06-06 05:39:00,65.3,64.0,29.93,NNW,328,3.0,6.0,94,0.35,,,0.44,weatherlink.com 1.10,2013-06-06 10:39:00,
2013-06-06 05:45:00,65.2,63.4,29.93,NNW,331,1.0,2.0,94,0.39,,,0.47,Wunderground v.1.15,2013-06-06 10:45:00,
2013-06-06 05:50:00,65.2,63.4,29.93,NW,309,1.0,1.0,94,0.37,,,0.50,Wunderground v.1.15,2013-06-06 10:50:00,
2013-06-06 05:54:00,65.2,64.0,29.93,NNW,329,0.0,6.0,94,0.19,,,0.52,weatherlink.com 1.10,2013-06-06 10:54:00,
2013-06-06 05:55:00,65.2,63.4,29.93,NNW,329,2.0,2.0,94,0.20,,,0.52,Wunderground v.1.15,2013-06-06 10:55:00,
2013-06-06 06:00:00,65.2,63.4,29.93,NNW,328,1.0,1.0,94,0.27,,,0.54,Wunderground v.1.15,2013-06-06 11:00:00,
2013-06-06 06:05:00,65.3,63.8,29.93,NNW,330,1.0,3.0,95,0.16,,,0.55,Wunderground v.1.15,2013-06-06 11:05:00,
2013-06-06 06:09:00,65.2,64.0,29.93,North,360,4.0,4.0,94,0.19,,,0.57,weatherlink.com 1.10,2013-06-06 11:09:00,
2013-06-06 06:15:00,65.1,63.6,29.92,North,5,3.0,5.0,95,0.15,,,0.58,Wunderground v.1.15,2013-06-06 11:15:00,
2013-06-06 06:24:00,65.1,64.0,29.91,North,11,3.0,7.0,95,0.19,,,0.60,weatherlink.com 1.10,2013-06-06 11:24:00,
2013-06-06 06:30:00,65.1,63.6,29.89,North,5,4.0,4.0,95,0.11,,,0.61,Wunderground v.1.15,2013-06-06 11:30:00,
2013-06-06 06:35:00,65.0,63.5,29.89,NNE,27,4.0,4.0,95,0.11,,,0.62,Wunderground v.1.15,2013-06-06 11:35:00,
2013-06-06 06:39:00,65.0,64.0,29.89,NE,36,6.0,8.0,95,0.19,,,0.63,weatherlink.com 1.10,2013-06-06 11:39:00,
2013-06-06 06:45:00,65.0,63.5,29.88,NNE,28,4.0,5.0,95,0.10,,,0.64,Wunderground v.1.15,2013-06-06 11:45:00,
2013-06-06 06:50:00,64.9,63.4,29.87,NE,44,5.0,7.0,95,0.09,,,0.64,Wunderground v.1.15,2013-06-06 11:50:00,
2013-06-06 06:54:00,64.8,63.0,29.87,NE,51,7.0,11.0,95,0.13,,,0.65,weatherlink.com 1.10,2013-06-06 11:54:00,
2013-06-06 06:55:00,64.8,63.3,29.87,NE,54,6.0,7.0,95,0.08,,,0.65,Wunderground v.1.15,2013-06-06 11:55:00,
2013-06-06 07:05:00,64.7,63.2,29.86,NNE,29,6.0,8.0,95,0.09,,,0.67,Wunderground v.1.15,2013-06-06 12:05:00,
2013-06-06 07:09:00,64.7,63.0,29.86,NNE,30,6.0,10.0,95,0.11,,,0.68,weatherlink.com 1.10,2013-06-06 12:09:00,
2013-06-06 07:10:00,64.7,63.2,29.86,ENE,57,6.0,6.0,95,0.14,,,0.68,Wunderground v.1.15,2013-06-06 12:10:00,
2013-06-06 07:15:00,64.8,63.3,29.86,North,5,6.0,6.0,95,0.13,,,0.69,Wunderground v.1.15,2013-06-06 12:15:00,
2013-06-06 07:20:00,64.7,63.2,29.85,NNE,31,7.0,8.0,95,0.17,,,0.71,Wunderground v.1.15,2013-06-06 12:20:00,
2013-06-06 07:24:00,64.7,63.0,29.84,NE,44,6.0,11.0,95,0.12,,,0.72,weatherlink.com 1.10,2013-06-06 12:24:00,
2013-06-06 07:30:00,64.8,63.3,29.84,NE,42,6.0,10.0,95,0.11,,,0.73,Wunderground v.1.15,2013-06-06 12:30:00,
2013-06-06 07:40:00,64.9,63.4,29.85,NE,38,6.0,8.0,95,0.13,,,0.75,Wunderground v.1.15,2013-06-06 12:40:00,
2013-06-06 07:45:00,64.9,63.4,29.85,NNE,17,7.0,8.0,95,0.13,,,0.76,Wunderground v.1.15,2013-06-06 12:45:00,
2013-06-06 07:50:00,64.9,63.4,29.85,NNE,29,7.0,7.0,95,0.08,,,0.77,Wunderground v.1.15,2013-06-06 12:50:00,
2013-06-06 07:55:00,64.9,63.4,29.86,NE,34,6.0,7.0,95,0.08,,,0.77,Wunderground v.1.15,2013-06-06 12:55:00,
2013-06-06 07:56:00,64.9,64.0,29.86,NNE,21,6.0,10.0,95,0.11,,,0.77,weatherlink.com 1.10,2013-06-06 12:56:00,
2013-06-06 08:05:00,65.0,63.5,29.86,North,10,6.0,7.0,95,0.09,,,0.79,Wunderground v.1.15,2013-06-06 13:05:00,
2013-06-06 08:10:00,65.2,63.7,29.87,NNE,22,6.0,6.0,95,0.09,,,0.80,Wunderground v.1.15,2013-06-06 13:10:00,
2013-06-06 08:15:00,65.2,63.7,29.88,NNE,24,5.0,6.0,95,0.09,,,0.80,Wunderground v.1.15,2013-06-06 13:15:00,
2013-06-06 08:20:00,65.3,63.8,29.88,NE,44,4.0,5.0,95,0.08,,,0.81,Wunderground v.1.15,2013-06-06 13:20:00,
2013-06-06 08:25:00,65.4,63.9,29.88,NNE,32,4.0,5.0,95,0.08,,,0.82,Wunderground v.1.15,2013-06-06 13:25:00,
2013-06-06 08:30:00,65.5,64.3,29.88,NNE,26,4.0,6.0,96,0.16,,,0.83,Wunderground v.1.15,2013-06-06 13:30:00,
2013-06-06 08:35:00,65.5,64.0,29.87,NNE,24,4.0,6.0,95,0.10,,,0.84,Wunderground v.1.15,2013-06-06 13:35:00,
2013-06-06 08:40:00,65.6,64.1,29.88,NE,51,5.0,6.0,95,0.11,,,0.85,Wunderground v.1.15,2013-06-06 13:40:00,
2013-06-06 08:50:00,65.7,64.2,29.87,NE,52,7.0,11.0,95,0.06,,,0.85,Wunderground v.1.15,2013-06-06 13:50:00,
2013-06-06 08:55:00,65.8,64.3,29.87,NNE,17,8.0,11.0,95,0.05,,,0.86,Wunderground v.1.15,2013-06-06 13:55:00,
2013-06-06 09:00:00,65.9,64.4,29.86,NE,53,9.0,10.0,95,0.05,,,0.86,Wunderground v.1.15,2013-06-06 14:00:00,
2013-06-06 09:10:00,65.9,64.4,29.86,NE,38,11.0,11.0,95,0.00,,,0.86,Wunderground v.1.15,2013-06-06 14:10:00,
2013-06-06 09:15:00,66.1,64.6,29.86,NE,44,8.0,11.0,95,0.00,,,0.87,Wunderground v.1.15,2013-06-06 14:15:00,
2013-06-06 09:20:00,66.1,64.3,29.87,North,5,5.0,5.0,94,0.00,,,0.87,Wunderground v.1.15,2013-06-06 14:20:00,
2013-06-06 09:25:00,66.2,64.4,29.87,North,11,3.0,5.0,94,0.00,,,0.87,Wunderground v.1.15,2013-06-06 14:25:00,
2013-06-06 09:30:00,66.1,64.3,29.87,ENE,66,2.0,4.0,94,0.00,,,0.87,Wunderground v.1.15,2013-06-06 14:30:00,
2013-06-06 09:40:00,66.5,64.7,29.87,NNE,33,7.0,7.0,94,0.00,,,0.87,Wunderground v.1.15,2013-06-06 14:40:00,
2013-06-06 09:45:00,66.6,64.8,29.87,ENE,64,9.0,9.0,94,0.00,,,0.87,Wunderground v.1.15,2013-06-06 14:45:00,
2013-06-06 09:55:00,66.8,65.0,29.87,NE,43,5.0,6.0,94,0.00,,,0.87,Wunderground v.1.15,2013-06-06 14:55:00,
2013-06-06 10:00:00,67.0,65.2,29.87,NE,42,3.0,4.0,94,0.00,,,0.87,Wunderground v.1.15,2013-06-06 15:00:00,
2013-06-06 10:05:00,67.1,65.0,29.87,ENE,61,3.0,4.0,93,0.00,,,0.87,Wunderground v.1.15,2013-06-06 15:05:00,
2013-06-06 10:10:00,67.4,65.6,29.88,SE,138,2.0,2.0,94,0.00,,,0.87,Wunderground v.1.15,2013-06-06 15:10:00,
2013-06-06 10:15:00,67.5,65.7,29.88,SE,138,1.0,2.0,94,0.00,,,0.87,Wunderground v.1.15,2013-06-06 15:15:00,
2013-06-06 10:20:00,67.6,65.5,29.87,SE,138,1.0,1.0,93,0.00,,,0.87,Wunderground v.1.15,2013-06-06 15:20:00,
2013-06-06 10:25:00,67.7,65.6,29.87,SE,138,1.0,1.0,93,0.00,,,0.87,Wunderground v.1.15,2013-06-06 15:25:00,
2013-06-06 10:30:00,68.0,65.9,29.87,SE,138,1.0,1.0,93,0.00,,,0.87,Wunderground v.1.15,2013-06-06 15:30:00,
2013-06-06 10:35:00,68.4,66.3,29.87,NNE,18,1.0,2.0,93,0.00,,,0.87,Wunderground v.1.15,2013-06-06 15:35:00,
2013-06-06 10:45:00,68.5,65.8,29.87,NE,35,3.0,3.0,91,0.00,,,0.87,Wunderground v.1.15,2013-06-06 15:45:00,
2013-06-06 10:55:00,68.8,66.1,29.87,North,349,3.0,3.0,91,0.00,,,0.87,Wunderground v.1.15,2013-06-06 15:55:00,
2013-06-06 11:00:00,69.1,66.4,29.88,North,5,3.0,3.0,91,0.00,,,0.87,Wunderground v.1.15,2013-06-06 16:00:00,
2013-06-06 11:05:00,69.4,66.7,29.88,NE,39,3.0,3.0,91,0.00,,,0.87,Wunderground v.1.15,2013-06-06 16:05:00,
2013-06-06 11:10:00,69.4,66.0,29.88,NNE,17,4.0,5.0,89,0.00,,,0.87,Wunderground v.1.15,2013-06-06 16:10:00,
2013-06-06 11:15:00,69.5,65.8,29.89,NNE,24,5.0,5.0,88,0.00,,,0.87,Wunderground v.1.15,2013-06-06 16:15:00,
2013-06-06 11:20:00,69.7,66.0,29.89,NNE,31,4.0,7.0,88,0.00,,,0.87,Wunderground v.1.15,2013-06-06 16:20:00,
2013-06-06 11:25:00,69.7,66.0,29.89,NNE,12,4.0,7.0,88,0.00,,,0.87,Wunderground v.1.15,2013-06-06 16:25:00,
2013-06-06 11:35:00,70.1,66.4,29.89,NE,42,4.0,8.0,88,0.00,,,0.87,Wunderground v.1.15,2013-06-06 16:35:00,
2013-06-06 11:40:00,70.2,66.5,29.90,ENE,58,5.0,7.0,88,0.00,,,0.87,Wunderground v.1.15,2013-06-06 16:40:00,
2013-06-06 11:45:00,70.4,66.3,29.90,NE,43,6.0,10.0,87,0.00,,,0.87,Wunderground v.1.15,2013-06-06 16:45:00,
2013-06-06 11:50:00,70.2,65.8,29.91,NE,38,6.0,7.0,86,0.00,,,0.87,Wunderground v.1.15,2013-06-06 16:50:00,
2013-06-06 12:00:00,70.1,65.7,29.92,NE,36,5.0,5.0,86,0.00,,,0.87,Wunderground v.1.15,2013-06-06 17:00:00,
2013-06-06 12:05:00,70.1,65.7,29.92,NE,37,5.0,5.0,86,0.00,,,0.87,Wunderground v.1.15,2013-06-06 17:05:00,
2013-06-06 12:10:00,70.3,65.9,29.92,North,5,5.0,5.0,86,0.00,,,0.87,Wunderground v.1.15,2013-06-06 17:10:00,
2013-06-06 12:15:00,70.5,65.8,29.92,NNE,30,5.0,5.0,85,0.00,,,0.87,Wunderground v.1.15,2013-06-06 17:15:00,
2013-06-06 12:20:00,70.8,65.7,29.92,NNE,19,5.0,8.0,84,0.00,,,0.87,Wunderground v.1.15,2013-06-06 17:20:00,
2013-06-06 12:25:00,71.0,65.2,29.92,NE,44,5.0,8.0,82,0.00,,,0.87,Wunderground v.1.15,2013-06-06 17:25:00,
2013-06-06 12:30:00,71.3,65.5,29.92,NNE,29,6.0,9.0,82,0.00,,,0.87,Wunderground v.1.15,2013-06-06 17:30:00,
2013-06-06 12:35:00,71.5,65.4,29.92,NE,42,6.0,9.0,81,0.00,,,0.87,Wunderground v.1.15,2013-06-06 17:35:00,
2013-06-06 12:40:00,71.4,64.9,29.93,NNE,32,7.0,9.0,80,0.00,,,0.87,Wunderground v.1.15,2013-06-06 17:40:00,
2013-06-06 12:45:00,71.5,65.4,29.93,NE,39,6.0,9.0,81,0.00,,,0.87,Wunderground v.1.15,2013-06-06 17:45:00,
2013-06-06 12:55:00,71.8,65.7,29.93,NE,51,4.0,5.0,81,0.00,,,0.87,Wunderground v.1.15,2013-06-06 17:55:00,
2013-06-06 13:00:00,72.0,65.5,29.93,NNE,24,4.0,4.0,80,0.00,,,0.87,Wunderground v.1.15,2013-06-06 18:00:00,
2013-06-06 13:05:00,72.0,65.1,29.93,ENE,70,5.0,5.0,79,0.00,,,0.87,Wunderground v.1.15,2013-06-06 18:05:00,
2013-06-06 13:10:00,72.1,65.6,29.93,NE,44,5.0,5.0,80,0.00,,,0.87,Wunderground v.1.15,2013-06-06 18:10:00,
2013-06-06 13:15:00,72.3,65.4,29.93,ENE,60,4.0,5.0,79,0.00,,,0.87,Wunderground v.1.15,2013-06-06 18:15:00,
2013-06-06 13:20:00,72.1,65.2,29.93,NNE,25,5.0,5.0,79,0.00,,,0.87,Wunderground v.1.15,2013-06-06 18:20:00,
2013-06-06 13:25:00,72.1,65.2,29.92,NE,49,5.0,6.0,79,0.00,,,0.87,Wunderground v.1.15,2013-06-06 18:25:00,
2013-06-06 13:35:00,72.0,65.5,29.92,NE,38,4.0,6.0,80,0.00,,,0.87,Wunderground v.1.15,2013-06-06 18:35:00,
2013-06-06 13:40:00,71.9,65.4,29.92,ENE,59,4.0,4.0,80,0.00,,,0.87,Wunderground v.1.15,2013-06-06 18:40:00,
2013-06-06 13:45:00,72.2,65.7,29.92,NNE,32,4.0,9.0,80,0.00,,,0.87,Wunderground v.1.15,2013-06-06 18:45:00,
2013-06-06 13:50:00,72.1,65.2,29.92,North,11,4.0,4.0,79,0.00,,,0.87,Wunderground v.1.15,2013-06-06 18:50:00,
2013-06-06 14:00:00,72.1,65.2,29.92,North,360,5.0,7.0,79,0.00,,,0.87,Wunderground v.1.15,2013-06-06 19:00:00,
2013-06-06 14:05:00,72.0,65.1,29.92,North,5,5.0,7.0,79,0.00,,,0.87,Wunderground v.1.15,2013-06-06 19:05:00,
2013-06-06 14:15:00,72.1,65.2,29.92,NNE,30,3.0,3.0,79,0.00,,,0.87,Wunderground v.1.15,2013-06-06 19:15:00,
2013-06-06 14:20:00,72.1,65.6,29.92,NNE,19,3.0,3.0,80,0.00,,,0.87,Wunderground v.1.15,2013-06-06 19:20:00,
2013-06-06 14:25:00,72.2,65.7,29.92,NNE,31,3.0,7.0,80,0.00,,,0.87,Wunderground v.1.15,2013-06-06 19:25:00,
2013-06-06 14:30:00,72.4,65.9,29.92,NE,51,3.0,4.0,80,0.00,,,0.87,Wunderground v.1.15,2013-06-06 19:30:00,
2013-06-06 14:35:00,72.5,65.6,29.92,ENE,67,3.0,4.0,79,0.00,,,0.87,Wunderground v.1.15,2013-06-06 19:35:00,
2013-06-06 14:40:00,72.5,65.2,29.92,NE,53,3.0,3.0,78,0.00,,,0.87,Wunderground v.1.15,2013-06-06 19:40:00,
2013-06-06 14:50:00,72.8,65.5,29.92,NE,35,3.0,4.0,78,0.00,,,0.87,Wunderground v.1.15,2013-06-06 19:50:00,
2013-06-06 14:55:00,72.7,65.4,29.91,NE,40,3.0,4.0,78,0.00,,,0.87,Wunderground v.1.15,2013-06-06 19:55:00,
2013-06-06 15:05:00,72.5,65.6,29.91,NE,34,5.0,6.0,79,0.00,,,0.87,Wunderground v.1.15,2013-06-06 20:05:00,
2013-06-06 15:10:00,72.7,65.8,29.91,NNE,27,4.0,4.0,79,0.00,,,0.87,Wunderground v.1.15,2013-06-06 20:10:00,
2013-06-06 15:15:00,72.9,66.0,29.91,ENE,63,3.0,4.0,79,0.00,,,0.87,Wunderground v.1.15,2013-06-06 20:15:00,
2013-06-06 15:25:00,73.2,65.9,29.91,NNE,24,3.0,7.0,78,0.00,,,0.87,Wunderground v.1.15,2013-06-06 20:25:00,
2013-06-06 15:30:00,73.3,65.7,29.91,NNE,20,4.0,4.0,77,0.00,,,0.87,Wunderground v.1.15,2013-06-06 20:30:00,
2013-06-06 15:35:00,73.3,65.7,29.91,NNE,12,5.0,5.0,77,0.00,,,0.87,Wunderground v.1.15,2013-06-06 20:35:00,
2013-06-06 15:40:00,73.3,64.9,29.91,NNE,28,6.0,6.0,75,0.00,,,0.87,Wunderground v.1.15,2013-06-06 20:40:00,
2013-06-06 15:45:00,73.3,65.3,29.90,North,5,6.0,7.0,76,0.00,,,0.87,Wunderground v.1.15,2013-06-06 20:45:00,
2013-06-06 15:50:00,73.4,65.4,29.90,NNW,346,6.0,6.0,76,0.00,,,0.87,Wunderground v.1.15,2013-06-06 20:50:00,
2013-06-06 15:55:00,73.4,65.4,29.90,North,5,6.0,9.0,76,0.00,,,0.87,Wunderground v.1.15,2013-06-06 20:55:00,
2013-06-06 16:00:00,73.3,65.3,29.90,NNE,23,6.0,6.0,76,0.00,,,0.87,Wunderground v.1.15,2013-06-06 21:00:00,
2013-06-06 16:05:00,73.5,65.5,29.90,NNE,17,5.0,6.0,76,0.00,,,0.87,Wunderground v.1.15,2013-06-06 21:05:00,
2013-06-06 16:10:00,73.5,65.5,29.90,NNE,21,4.0,4.0,76,0.00,,,0.87,Wunderground v.1.15,2013-06-06 21:10:00,
2013-06-06 16:15:00,73.7,65.7,29.90,NNE,20,4.0,4.0,76,0.00,,,0.87,Wunderground v.1.15,2013-06-06 21:15:00,
2013-06-06 16:20:00,74.0,66.0,29.90,NE,38,4.0,6.0,76,0.00,,,0.87,Wunderground v.1.15,2013-06-06 21:20:00,
2013-06-06 16:30:00,75.0,65.8,29.89,North,5,5.0,5.0,73,0.00,,,0.87,Wunderground v.1.15,2013-06-06 21:30:00,
2013-06-06 16:35:00,75.6,65.5,29.89,NE,40,5.0,5.0,71,0.00,,,0.87,Wunderground v.1.15,2013-06-06 21:35:00,
2013-06-06 16:45:00,75.2,65.1,29.89,North,355,6.0,10.0,71,0.00,,,0.87,Wunderground v.1.15,2013-06-06 21:45:00,
2013-06-06 16:55:00,75.2,64.7,29.88,NNE,29,8.0,10.0,70,0.00,,,0.87,Wunderground v.1.15,2013-06-06 21:55:00,
2013-06-06 17:00:00,75.2,64.7,29.89,North,11,7.0,7.0,70,0.00,,,0.87,Wunderground v.1.15,2013-06-06 22:00:00,
2013-06-06 17:05:00,75.1,64.6,29.89,North,360,7.0,12.0,70,0.00,,,0.87,Wunderground v.1.15,2013-06-06 22:05:00,
2013-06-06 17:10:00,74.9,64.5,29.89,NNE,15,7.0,9.0,70,0.00,,,0.87,Wunderground v.1.15,2013-06-06 22:10:00,
2013-06-06 17:15:00,74.9,64.9,29.89,NE,34,7.0,10.0,71,0.00,,,0.87,Wunderground v.1.15,2013-06-06 22:15:00,
2013-06-06 17:20:00,75.0,64.5,29.89,NNE,30,7.0,9.0,70,0.00,,,0.87,Wunderground v.1.15,2013-06-06 22:20:00,
2013-06-06 17:30:00,75.3,64.8,29.89,East,99,8.0,8.0,70,0.00,,,0.87,Wunderground v.1.15,2013-06-06 22:30:00,
2013-06-06 17:35:00,75.1,63.8,29.89,NE,49,8.0,9.0,68,0.00,,,0.87,Wunderground v.1.15,2013-06-06 22:35:00,
2013-06-06 17:40:00,74.9,64.0,29.89,NNE,15,8.0,8.0,69,0.00,,,0.87,Wunderground v.1.15,2013-06-06 22:40:00,
2013-06-06 17:45:00,75.5,64.6,29.89,NE,50,6.0,8.0,69,0.00,,,0.87,Wunderground v.1.15,2013-06-06 22:45:00,
2013-06-06 17:55:00,74.8,63.5,29.89,North,5,8.0,15.0,68,0.00,,,0.87,Wunderground v.1.15,2013-06-06 22:55:00,
2013-06-06 18:00:00,74.7,63.9,29.89,North,5,8.0,8.0,69,0.00,,,0.87,Wunderground v.1.15,2013-06-06 23:00:00,
2013-06-06 18:05:00,74.5,63.7,29.89,North,5,8.0,11.0,69,0.00,,,0.87,Wunderground v.1.15,2013-06-06 23:05:00,
2013-06-06 18:10:00,74.6,63.8,29.88,NNE,27,8.0,8.0,69,0.00,,,0.87,Wunderground v.1.15,2013-06-06 23:10:00,
2013-06-06 18:15:00,74.7,63.4,29.88,NE,40,8.0,8.0,68,0.00,,,0.87,Wunderground v.1.15,2013-06-06 23:15:00,
2013-06-06 18:20:00,74.5,63.2,29.89,North,355,7.0,7.0,68,0.00,,,0.87,Wunderground v.1.15,2013-06-06 23:20:00,
2013-06-06 18:25:00,74.0,62.8,29.89,NE,43,7.0,7.0,68,0.00,,,0.87,Wunderground v.1.15,2013-06-06 23:25:00,
2013-06-06 18:30:00,74.1,62.9,29.89,NNE,17,7.0,7.0,68,0.00,,,0.87,Wunderground v.1.15,2013-06-06 23:30:00,
2013-06-06 18:40:00,74.3,62.6,29.89,North,351,6.0,6.0,67,0.00,,,0.87,Wunderground v.1.15,2013-06-06 23:40:00,
2013-06-06 18:45:00,74.5,62.4,29.88,NNE,20,6.0,6.0,66,0.00,,,0.87,Wunderground v.1.15,2013-06-06 23:45:00,
2013-06-06 18:50:00,74.6,62.9,29.89,NE,48,6.0,10.0,67,0.00,,,0.87,Wunderground v.1.15,2013-06-06 23:50:00,
2013-06-06 19:00:00,74.8,62.7,29.89,NE,40,6.0,6.0,66,0.00,,,0.87,Wunderground v.1.15,2013-06-07 00:00:00,
2013-06-06 19:05:00,74.5,62.4,29.89,NNE,15,6.0,8.0,66,0.00,,,0.87,Wunderground v.1.15,2013-06-07 00:05:00,
2013-06-06 19:10:00,74.5,62.4,29.89,NE,36,6.0,6.0,66,0.00,,,0.87,Wunderground v.1.15,2013-06-07 00:10:00,
2013-06-06 19:15:00,74.4,61.9,29.89,North,360,6.0,6.0,65,0.00,,,0.87,Wunderground v.1.15,2013-06-07 00:15:00,
2013-06-06 19:20:00,74.5,62.4,29.89,North,5,6.0,7.0,66,0.00,,,0.87,Wunderground v.1.15,2013-06-07 00:20:00,
2013-06-06 19:30:00,74.3,62.6,29.89,NNW,343,6.0,6.0,67,0.00,,,0.87,Wunderground v.1.15,2013-06-07 00:30:00,
2013-06-06 19:35:00,74.2,62.5,29.89,NNE,30,5.0,6.0,67,0.00,,,0.87,Wunderground v.1.15,2013-06-07 00:35:00,
2013-06-06 19:40:00,74.1,62.4,29.89,NE,40,5.0,5.0,67,0.00,,,0.87,Wunderground v.1.15,2013-06-07 00:40:00,
2013-06-06 19:45:00,74.1,62.4,29.90,North,360,4.0,6.0,67,0.00,,,0.87,Wunderground v.1.15,2013-06-07 00:45:00,
2013-06-06 19:50:00,73.9,62.2,29.90,NNE,18,4.0,7.0,67,0.00,,,0.87,Wunderground v.1.15,2013-06-07 00:50:00,
2013-06-06 20:00:00,73.7,62.5,29.90,North,11,4.0,4.0,68,0.00,,,0.87,Wunderground v.1.15,2013-06-07 01:00:00,
2013-06-06 20:05:00,73.5,61.9,29.91,NNE,28,4.0,6.0,67,0.00,,,0.87,Wunderground v.1.15,2013-06-07 01:05:00,
2013-06-06 20:10:00,73.4,62.2,29.91,NNE,19,4.0,4.0,68,0.00,,,0.87,Wunderground v.1.15,2013-06-07 01:10:00,
2013-06-06 20:15:00,73.1,62.3,29.91,NE,36,4.0,4.0,69,0.00,,,0.87,Wunderground v.1.15,2013-06-07 01:15:00,
2013-06-06 20:25:00,72.6,62.3,29.91,NNE,29,4.0,5.0,70,0.00,,,0.87,Wunderground v.1.15,2013-06-07 01:25:00,
2013-06-06 20:30:00,72.4,62.1,29.92,NNE,29,3.0,3.0,70,0.00,,,0.87,Wunderground v.1.15,2013-06-07 01:30:00,
2013-06-06 20:40:00,72.0,61.7,29.92,NNE,26,2.0,2.0,70,0.00,,,0.87,Wunderground v.1.15,2013-06-07 01:40:00,
2013-06-06 20:50:00,71.6,61.7,29.92,NE,34,2.0,2.0,71,0.00,,,0.87,Wunderground v.1.15,2013-06-07 01:50:00,
2013-06-06 20:55:00,71.6,61.7,29.92,NE,34,2.0,3.0,71,0.00,,,0.87,Wunderground v.1.15,2013-06-07 01:55:00,
2013-06-06 21:05:00,71.4,61.1,29.92,NE,38,3.0,4.0,70,0.00,,,0.87,Wunderground v.1.15,2013-06-07 02:05:00,
2013-06-06 21:10:00,71.3,61.0,29.92,NNE,24,3.0,3.0,70,0.00,,,0.87,Wunderground v.1.15,2013-06-07 02:10:00,
2013-06-06 21:15:00,71.2,60.9,29.92,NNE,25,3.0,3.0,70,0.00,,,0.87,Wunderground v.1.15,2013-06-07 02:15:00,
2013-06-06 21:25:00,71.0,61.1,29.93,NNE,30,2.0,3.0,71,0.00,,,0.87,Wunderground v.1.15,2013-06-07 02:25:00,
2013-06-06 21:30:00,70.9,61.0,29.93,NE,34,2.0,2.0,71,0.00,,,0.87,Wunderground v.1.15,2013-06-07 02:30:00,
2013-06-06 21:35:00,70.8,60.9,29.93,NE,36,2.0,3.0,71,0.00,,,0.87,Wunderground v.1.15,2013-06-07 02:35:00,
2013-06-06 21:40:00,70.6,60.7,29.93,NNE,28,2.0,2.0,71,0.00,,,0.87,Wunderground v.1.15,2013-06-07 02:40:00,
2013-06-06 21:50:00,70.6,60.7,29.93,NE,35,3.0,3.0,71,0.00,,,0.87,Wunderground v.1.15,2013-06-07 02:50:00,
2013-06-06 21:55:00,70.6,60.7,29.93,NNE,26,3.0,4.0,71,0.00,,,0.87,Wunderground v.1.15,2013-06-07 02:55:00,
2013-06-06 22:00:00,70.6,60.7,29.93,NNE,28,3.0,5.0,71,0.00,,,0.87,Wunderground v.1.15,2013-06-07 03:00:00,
2013-06-06 22:05:00,70.6,60.7,29.94,NNE,28,2.0,5.0,71,0.00,,,0.87,Wunderground v.1.15,2013-06-07 03:05:00,
2013-06-06 22:10:00,70.5,60.6,29.94,NNE,28,1.0,1.0,71,0.00,,,0.87,Wunderground v.1.15,2013-06-07 03:10:00,
2013-06-06 22:20:00,70.0,60.6,29.94,NNE,28,1.0,1.0,72,0.00,,,0.87,Wunderground v.1.15,2013-06-07 03:20:00,
2013-06-06 22:25:00,69.8,60.8,29.94,NNE,28,2.0,3.0,73,0.00,,,0.87,Wunderground v.1.15,2013-06-07 03:25:00,
2013-06-06 22:30:00,69.7,60.7,29.94,NNE,28,2.0,2.0,73,0.00,,,0.87,Wunderground v.1.15,2013-06-07 03:30:00,
2013-06-06 22:40:00,69.6,60.9,29.95,NNE,28,2.0,2.0,74,0.00,,,0.87,Wunderground v.1.15,2013-06-07 03:40:00,
2013-06-06 22:45:00,69.5,60.8,29.95,NNE,28,1.0,2.0,74,0.00,,,0.87,Wunderground v.1.15,2013-06-07 03:45:00,
2013-06-06 22:55:00,69.3,60.7,29.95,NNE,28,1.0,1.0,74,0.00,,,0.87,Wunderground v.1.15,2013-06-07 03:55:00,
2013-06-06 23:00:00,69.1,60.8,29.95,NNE,28,1.0,1.0,75,0.00,,,0.87,Wunderground v.1.15,2013-06-07 04:00:00,
2013-06-06 23:05:00,68.9,60.6,29.96,NNE,28,1.0,1.0,75,0.00,,,0.87,Wunderground v.1.15,2013-06-07 04:05:00,
2013-06-06 23:10:00,68.8,60.9,29.96,NNE,28,1.0,1.0,76,0.00,,,0.87,Wunderground v.1.15,2013-06-07 04:10:00,
2013-06-06 23:15:00,68.6,60.7,29.96,NNE,28,1.0,1.0,76,0.00,,,0.87,Wunderground v.1.15,2013-06-07 04:15:00,
2013-06-06 23:20:00,68.5,61.0,29.96,NNE,28,0.0,0.0,77,0.00,,,0.87,Wunderground v.1.15,2013-06-07 04:20:00,
2013-06-06 23:30:00,68.1,61.0,29.96,NNE,28,0.0,0.0,78,0.00,,,0.87,Wunderground v.1.15,2013-06-07 04:30:00,
2013-06-06 23:35:00,67.9,61.1,29.95,NNE,28,0.0,0.0,79,0.00,,,0.87,Wunderground v.1.15,2013-06-07 04:35:00,
2013-06-06 23:40:00,67.6,60.9,29.95,NNE,28,0.0,0.0,79,0.00,,,0.87,Wunderground v.1.15,2013-06-07 04:40:00,
2013-06-06 23:45:00,67.5,60.8,29.95,NNE,28,1.0,1.0,79,0.00,,,0.87,Wunderground v.1.15,2013-06-07 04:45:00,
2013-06-06 23:50:00,67.4,61.0,29.95,NNE,28,0.0,0.0,80,0.00,,,0.87,Wunderground v.1.15,2013-06-07 04:50:00,